METEOSAT-10 (MSG-3) (38552 NORAD) Tracking and Keplerian Element Data

This shows tracking and keplerian element data for the satellite.

Feedback or suggestion? Click here.




ElementValue
Catalog38552
NameMETEOSAT-10 (MSG-3)
Epoch Orbit4585
Epoch Day34.68366075
Epoch Year2025
RAAN61.9802
Inclination3.4961
Eccentricity0.0001818
Argument of Perigee231.6704
Mean Anonmoly86.6038
Mean Motion1.00268573
Decay Rate-4E-08
L11 38552U 12035B 25034.68366075 -.00000004 00000+0 00000+0 0 9992
L22 38552 3.4961 61.9802 0001818 231.6704 86.6038 1.00268573 45850



Live tracking and technical data element details for METEOSAT-10 (MSG-3) (NORAD 38552). METEOSAT-10 (MSG-3) can be tracked NOW for your location showing map with azimuth and elevation plus other details from your city location.







IsCatalogInMostPopularTable: catalog: 38552, numindb: 409
Update: records affected: 1



GetName: 38552 METEOSAT-10 (MSG-3)

Hit Count: updated at: Thu, 22 May 2025 03:29:05 GMT